* Astronomy

Members Login
Username 
 
Password 
    Remember Me  
Post Info TOPIC: SL-4 RB Re-entry


L

Posts: 131433
Date:
SL-4 RB Re-entry
Permalink  
 


A SL-4 rocket body that was launched on the 15th May, 2012, from the Baikonur Cosmodrome, for the Soyuz TMA-04M mission re-entered the Earths atmosphere on the 17th May, 2012 @ 10:58 GMT ± 7 minutes.

SL-4 RB
1 38292U 12022B   12138.38340802  .26607685  12713-4  26106-3 0   160
2 38292 051.6404 275.9706 0000601 035.9833 324.4369 16.51059794   378

Inclination: 51.64°
Revolution Number:  38
Predicted Location:  51°N, 311°E



__________________
Page 1 of 1  sorted by
 
Quick Reply

Please log in to post quick replies.



Create your own FREE Forum
Report Abuse
Powered by ActiveBoard